VK4NB-13 Weather Reports


time (UTC)temp
C
wind
direction
speed
KPH
gust
KPH
rain 1hr
cm
rain 24hr
cm
rain mn
cm
humidity
%
barometer
mb
20260510045503 25 90 0.0 3.2 0.00 0.00 0.00 72 1020.8
20260510045003 25 92 0.0 3.2 0.00 0.00 0.00 70 1020.9
20260510044503 25 88 0.0 3.2 0.00 0.00 0.00 70 1021.1
20260510044003 25 103 0.0 12.9 0.00 0.00 0.00 68 1020.8
20260510043504 25 112 0.0 12.9 0.00 0.00 0.00 67 1020.9
20260510043004 26 0 0.0 0.0 0.00 0.00 0.00 68 1021.2
20260510042503 26 0 0.0 0.0 0.00 0.00 0.00 68 1021.1
20260510042003 26 0 0.0 0.0 0.00 0.00 0.00 68 1021.0
20260510041503 26 0 0.0 0.0 0.00 0.00 0.00 68 1021.0
20260510041003 26 0 0.0 0.0 0.00 0.00 0.00 66 1021.1
20260510040503 26 0 0.0 0.0 0.00 0.00 0.00 67 1020.7
20260510040003 25 112 0.0 3.2 0.00 0.00 0.00 69 1020.8
20260510035503 25 112 0.0 3.2 0.00 0.00 0.00 68 1021.2
20260510035004 25 0 0.0 0.0 0.00 0.00 0.00 69 1021.3
20260510034524 26 0 0.0 0.0 0.00 0.00 0.00 67 1021.1
20260510034003 26 0 0.0 0.0 0.00 0.00 0.00 67 1021.3
20260510033504 26 67 0.0 3.2 0.00 0.00 0.00 68 1021.3
20260510033004 25 67 0.0 3.2 0.00 0.00 0.00 68 1021.3
20260510032503 25 67 0.0 3.2 0.00 0.00 0.00 72 1021.5
20260510032003 26 0 0.0 0.0 0.00 0.00 0.00 70 1021.7
20260510031503 25 157 0.0 3.2 0.00 0.00 0.00 72 1021.6
20260510031024 25 157 0.0 3.2 0.00 0.00 0.00 71 1021.6
20260510030503 25 109 0.0 3.2 0.00 0.00 0.00 70 1021.7
20260510030004 25 108 0.0 3.2 0.00 0.00 0.00 71 1021.5
20260510025524 25 89 0.0 3.2 0.00 0.00 0.00 73 1021.6
20260510025003 25 61 0.0 3.2 0.00 0.00 0.00 73 1021.8
20260510024524 25 59 0.0 3.2 0.00 0.00 0.00 72 1021.9
20260510024003 25 0 0.0 0.0 0.00 0.00 0.00 72 1021.8
20260510023503 26 90 0.0 3.2 0.00 0.00 0.00 72 1022.3
20260510023004 25 90 0.0 3.2 0.00 0.00 0.00 73 1022.4
20260510022524 25 0 0.0 0.0 0.00 0.00 0.00 71 1022.2
20260510022024 26 112 0.0 3.2 0.00 0.00 0.00 72 1022.4
20260510021504 25 112 0.0 3.2 0.00 0.00 0.00 74 1022.7
20260510021000 25 97 0.0 3.2 0.00 0.00 0.00 73 1022.7
20260510020501 25 90 0.0 3.2 0.00 0.00 0.00 74 1022.7
20260510020001 25 101 0.0 3.2 0.00 0.00 0.00 72 1022.6
20260510015500 25 101 0.0 3.2 0.00 0.00 0.00 71 1022.6
20260510015022 25 0 0.0 0.0 0.00 0.00 0.00 70 1022.7
20260510014522 25 0 0.0 0.0 0.00 0.00 0.00 70 1022.7
20260510014001 25 0 0.0 0.0 0.00 0.00 0.00 69 1022.3
20260510013500 25 0 0.0 0.0 0.00 0.00 0.00 72 1022.6
20260510013001 25 0 0.0 0.0 0.00 0.00 0.00 69 1022.6
20260510012522 25 112 0.0 3.2 0.00 0.00 0.00 70 1022.5
20260510012001 25 112 0.0 3.2 0.00 0.00 0.00 70 1022.7
20260510011501 25 0 0.0 0.0 0.00 0.00 0.00 70 1022.8
20260510011001 26 0 0.0 0.0 0.00 0.00 0.00 71 1022.7
20260510010501 25 0 0.0 0.0 0.00 0.00 0.00 72 1022.9
20260510010022 25 135 0.0 3.2 0.00 0.00 0.00 72 1023.0
20260510005501 25 135 0.0 3.2 0.00 0.00 0.00 73 1022.9
20260510005001 25 0 0.0 0.0 0.00 0.00 0.00 73 1023.1
20260510004522 25 0 0.0 0.0 0.00 0.00 0.00 72 1023.1
20260510004001 26 0 0.0 0.0 0.00 0.00 0.00 72 1023.2
20260510003501 25 112 0.0 3.2 0.00 0.00 0.00 74 1023.3
20260510003002 24 112 0.0 3.2 0.00 0.00 0.00 76 1023.3
20260510002501 24 0 0.0 0.0 0.00 0.00 0.00 76 1023.3
20260510002001 25 0 0.0 0.0 0.00 0.00 0.00 74 1023.3
20260510001501 25 0 0.0 0.0 0.00 0.00 0.00 75 1023.6
20260510001001 24 0 0.0 0.0 0.00 0.00 0.00 75 1023.4
20260510000501 25 0 0.0 0.0 0.00 0.00 0.00 76 1023.2
20260510000001 24 112 0.0 3.2 0.00 0.00 0.00 76 1023.5
20260509235501 23 112 0.0 3.2 0.00 0.00 0.00 77 1023.4
20260509235001 24 74 0.0 3.2 0.00 0.00 0.00 75 1023.4
20260509234501 25 93 0.0 3.2 0.00 0.00 0.00 76 1023.4
20260509234022 24 118 0.0 3.2 0.00 0.00 0.00 77 1023.5
20260509233501 24 135 0.0 3.2 0.00 0.00 0.00 76 1023.4
20260509233002 23 72 0.0 3.2 0.00 0.00 0.00 77 1023.5
20260509232522 24 79 0.0 3.2 0.00 0.00 0.00 76 1023.3
20260509232001 23 90 0.0 3.2 0.00 0.00 0.00 78 1023.1
20260509231522 23 0 0.0 0.0 0.00 0.00 0.00 77 1023.1
20260509231001 23 0 0.0 0.0 0.00 0.00 0.00 78 1023.1
20260509230522 23 90 0.0 3.2 0.00 0.00 0.00 78 1022.9
20260509230001 23 90 0.0 3.2 0.00 0.00 0.00 79 1022.9
20260509225501 23 157 0.0 3.2 0.00 0.00 0.00 79 1022.8
20260509225001 23 157 0.0 3.2 0.00 0.00 0.00 79 1022.9
20260509224501 22 157 0.0 3.2 0.00 0.00 0.00 79 1023.0
20260509224001 23 157 0.0 3.2 0.00 0.00 0.00 79 1022.9
20260509223501 23 157 0.0 3.2 0.00 0.00 0.00 80 1022.9
20260509223002 22 0 0.0 0.0 0.00 0.00 0.00 79 1022.8
20260509222522 22 0 0.0 0.0 0.00 0.00 0.00 79 1022.6
20260509222022 22 0 0.0 0.0 0.00 0.00 0.00 78 1022.6
20260509221501 22 0 0.0 0.0 0.00 0.00 0.00 79 1022.5
20260509221001 22 0 0.0 0.0 0.00 0.00 0.00 80 1022.5
20260509220501 22 0 0.0 0.0 0.00 0.00 0.00 80 1022.7
20260509220001 22 0 0.0 0.0 0.00 0.00 0.00 81 1022.6
20260509215501 22 0 0.0 0.0 0.00 0.00 0.00 81 1022.5
20260509215001 21 0 0.0 0.0 0.00 0.00 0.00 82 1022.5
20260509214501 21 0 0.0 0.0 0.00 0.00 0.00 82 1022.0
20260509214001 22 0 0.0 0.0 0.00 0.00 0.00 83 1022.4
20260509213522 21 0 0.0 0.0 0.00 0.00 0.00 82 1022.2
20260509213002 21 102 0.0 3.2 0.00 0.00 0.00 84 1021.9
20260509212501 21 101 0.0 3.2 0.00 0.00 0.00 83 1021.8
20260509212001 21 117 0.0 3.2 0.00 0.00 0.00 84 1022.0
20260509211501 21 135 0.0 3.2 0.00 0.00 0.00 85 1021.7
20260509211001 20 112 0.0 3.2 0.00 0.00 0.00 85 1021.8
20260509210501 20 112 0.0 3.2 0.00 0.00 0.00 86 1021.8
20260509210022 20 0 0.0 0.0 0.00 0.00 0.00 87 1021.6
20260509205522 20 0 0.0 0.0 0.00 0.00 0.00 88 1021.7
20260509205001 20 0 0.0 0.0 0.00 0.00 0.00 89 1021.7
20260509204501 20 0 0.0 0.0 0.00 0.00 0.00 89 1021.4
20260509204001 19 0 0.0 0.0 0.00 0.00 0.00 89 1021.5
20260509203501 19 0 0.0 0.0 0.00 0.00 0.00 89 1021.6
20260509203023 19 0 0.0 0.0 0.00 0.00 0.00 90 1021.6
20260509202501 19 180 0.0 3.2 0.00 0.00 0.00 90 1021.4
20260509202001 19 145 0.0 3.2 0.00 0.00 0.00 90 1021.5
20260509201501 19 123 0.0 3.2 0.00 0.00 0.00 90 1021.2
20260509201001 19 157 0.0 3.2 0.00 0.00 0.00 90 1020.9
20260509200501 19 158 0.0 3.2 0.00 0.00 0.00 90 1020.9
20260509200022 19 0 0.0 0.0 0.00 0.00 0.00 90 1021.1
20260509195501 19 0 0.0 0.0 0.00 0.00 0.00 90 1020.9
20260509195001 19 0 0.0 0.0 0.00 0.00 0.00 90 1020.8
20260509194501 19 0 0.0 0.0 0.00 0.00 0.00 90 1020.8
20260509194001 19 0 0.0 0.0 0.00 0.00 0.00 90 1020.8
20260509193501 19 0 0.0 0.0 0.00 0.00 0.00 90 1020.7
20260509193002 19 0 0.0 0.0 0.00 0.00 0.00 91 1020.7
20260509192501 19 0 0.0 0.0 0.00 0.00 0.00 91 1020.9
20260509192001 19 0 0.0 0.0 0.00 0.00 0.00 91 1020.7
20260509191501 19 0 0.0 0.0 0.00 0.00 0.00 91 1020.9
20260509191001 19 0 0.0 0.0 0.00 0.00 0.00 91 1020.8
20260509190501 19 0 0.0 0.0 0.00 0.00 0.00 91 1020.7
20260509190002 19 0 0.0 0.0 0.00 0.00 0.00 91 1020.5
20260509185501 18 0 0.0 0.0 0.00 0.00 0.00 91 1020.7
20260509185001 18 0 0.0 0.0 0.00 0.00 0.00 91 1020.4
20260509184523 19 0 0.0 0.0 0.00 0.00 0.00 91 1020.6
20260509184002 18 180 0.0 3.2 0.00 0.00 0.00 91 1020.6
20260509183501 19 180 0.0 3.2 0.00 0.00 0.00 90 1020.3
20260509183002 19 0 0.0 0.0 0.00 0.00 0.00 90 1020.3
20260509182502 19 0 0.0 0.0 0.00 0.00 0.00 91 1020.5
20260509182022 19 0 0.0 0.0 0.00 0.00 0.00 90 1020.2
20260509181501 19 0 0.0 0.0 0.00 0.00 0.00 90 1020.3
20260509181002 19 0 0.0 0.0 0.00 0.00 0.00 90 1020.1
20260509180502 19 0 0.0 0.0 0.00 0.00 0.00 91 1020.0
20260509180022 18 0 0.0 0.0 0.00 0.00 0.00 93 1020.3
20260509175502 18 0 0.0 0.0 0.00 0.00 0.00 93 1020.2
20260509175023 18 0 0.0 0.0 0.00 0.00 0.00 93 1020.1
20260509174502 19 0 0.0 0.0 0.00 0.00 0.00 92 1020.1
20260509174002 19 0 0.0 0.0 0.00 0.00 0.00 92 1020.2
20260509173501 19 0 0.0 0.0 0.00 0.00 0.00 92 1020.2
20260509173003 19 0 0.0 0.0 0.00 0.00 0.00 91 1020.0
20260509172502 19 0 0.0 0.0 0.00 0.00 0.00 92 1020.1
20260509172002 19 0 0.0 0.0 0.00 0.00 0.00 92 1020.1
20260509171501 19 0 0.0 0.0 0.00 0.00 0.00 92 1020.3
20260509171023 19 0 0.0 0.0 0.00 0.00 0.00 93 1020.2
20260509170502 19 67 0.0 3.2 0.00 0.00 0.00 92 1020.3
20260509170023 19 67 0.0 3.2 0.00 0.00 0.00 93 1020.2
20260509165502 19 0 0.0 0.0 0.00 0.00 0.00 92 1020.2
20260509165002 19 0 0.0 0.0 0.00 0.00 0.00 93 1020.2
20260509164502 19 0 0.0 0.0 0.00 0.00 0.00 93 1020.3
20260509164002 19 0 0.0 0.0 0.00 0.00 0.00 94 1020.3
20260509163501 18 0 0.0 0.0 0.00 0.00 0.00 95 1020.6
20260509163003 18 0 0.0 0.0 0.00 0.00 0.00 94 1020.4
20260509162502 18 0 0.0 0.0 0.00 0.00 0.00 95 1020.4
20260509162023 18 0 0.0 0.0 0.00 0.00 0.00 94 1020.4
20260509161502 18 0 0.0 0.0 0.00 0.00 0.00 94 1020.5
20260509161002 19 0 0.0 0.0 0.00 0.00 0.00 94 1020.6
20260509160502 19 0 0.0 0.0 0.00 0.00 0.00 94 1020.6
20260509160002 18 0 0.0 0.0 0.00 0.00 0.00 94 1020.5
20260509155502 18 0 0.0 0.0 0.00 0.00 0.00 94 1020.9
20260509155002 18 0 0.0 0.0 0.00 0.00 0.00 94 1020.9
20260509154502 18 0 0.0 0.0 0.00 0.00 0.00 95 1021.0
20260509154002 18 0 0.0 0.0 0.00 0.00 0.00 94 1020.9
20260509153503 18 0 0.0 0.0 0.00 0.00 0.00 93 1020.8
20260509153003 19 0 0.0 0.0 0.00 0.00 0.00 93 1020.9
20260509152523 19 0 0.0 0.0 0.00 0.00 0.00 93 1020.7
20260509152002 19 0 0.0 0.0 0.00 0.00 0.00 93 1020.8
20260509151502 19 0 0.0 0.0 0.00 0.00 0.00 93 1020.9
20260509151002 19 0 0.0 0.0 0.00 0.00 0.00 93 1020.9
20260509150502 19 0 0.0 0.0 0.00 0.00 0.00 93 1020.8
20260509150002 19 0 0.0 0.0 0.00 0.00 0.00 93 1020.7
20260509145502 19 0 0.0 0.0 0.00 0.00 0.00 93 1020.9
20260509145002 19 0 0.0 0.0 0.00 0.00 0.00 93 1020.8
20260509144502 19 0 0.0 0.0 0.00 0.00 0.00 92 1021.2
20260509144002 19 0 0.0 0.0 0.00 0.00 0.00 92 1021.2
20260509143502 19 0 0.0 0.0 0.00 0.00 0.00 92 1021.0
20260509143003 19 0 0.0 0.0 0.00 0.00 0.00 93 1021.4
20260509142523 19 0 0.0 0.0 0.00 0.00 0.00 93 1021.1
20260509142023 19 0 0.0 0.0 0.00 0.00 0.00 93 1021.2
20260509141523 19 0 0.0 0.0 0.00 0.00 0.00 92 1021.3
20260509141002 19 0 0.0 0.0 0.00 0.00 0.00 93 1021.2
20260509140502 19 0 0.0 0.0 0.00 0.00 0.00 93 1021.2
20260509140002 19 0 0.0 0.0 0.00 0.00 0.00 93 1021.5
20260509135502 19 0 0.0 0.0 0.00 0.00 0.00 93 1021.3
20260509135002 19 157 0.0 3.2 0.00 0.00 0.00 92 1021.2
20260509134502 19 157 0.0 3.2 0.00 0.00 0.00 93 1021.2
20260509134002 19 0 0.0 0.0 0.00 0.00 0.00 93 1021.3
20260509133502 19 0 0.0 0.0 0.00 0.00 0.00 92 1021.5
20260509133004 19 0 0.0 0.0 0.00 0.00 0.00 93 1021.6
20260509132502 18 0 0.0 0.0 0.00 0.00 0.00 93 1021.4
20260509132002 19 0 0.0 0.0 0.00 0.00 0.00 92 1021.4
20260509131502 19 0 0.0 0.0 0.00 0.00 0.00 91 1021.5
20260509131002 19 0 0.0 0.0 0.00 0.00 0.00 92 1021.7
20260509130502 19 0 0.0 0.0 0.00 0.00 0.00 91 1021.7
20260509130002 19 0 0.0 0.0 0.00 0.00 0.00 92 1021.9
20260509125502 19 0 0.0 0.0 0.00 0.00 0.00 91 1021.8
20260509125002 19 0 0.0 0.0 0.00 0.00 0.00 91 1021.9
20260509124502 18 0 0.0 0.0 0.00 0.00 0.00 91 1021.8
20260509124002 19 0 0.0 0.0 0.00 0.00 0.00 90 1021.7
20260509123502 19 0 0.0 0.0 0.00 0.00 0.00 91 1021.9
20260509123003 19 0 0.0 0.0 0.00 0.00 0.00 89 1021.8
20260509122502 19 0 0.0 0.0 0.00 0.00 0.00 88 1021.8
20260509122002 20 0 0.0 0.0 0.00 0.00 0.00 88 1021.8
20260509121502 20 0 0.0 0.0 0.00 0.00 0.00 88 1021.9
20260509121002 20 0 0.0 0.0 0.00 0.00 0.00 87 1022.0
20260509120502 20 0 0.0 0.0 0.00 0.00 0.00 87 1021.9
20260509120023 19 0 0.0 0.0 0.00 0.00 0.00 87 1021.9
20260509115502 20 0 0.0 0.0 0.00 0.00 0.00 87 1022.0
20260509115002 19 0 0.0 0.0 0.00 0.00 0.00 87 1022.0
20260509114503 19 0 0.0 0.0 0.00 0.00 0.00 87 1022.1
20260509114002 19 0 0.0 0.0 0.00 0.00 0.00 86 1021.9
20260509113502 19 0 0.0 0.0 0.00 0.00 0.00 86 1022.0
20260509113003 19 0 0.0 0.0 0.00 0.00 0.00 86 1022.0
20260509112503 19 0 0.0 0.0 0.00 0.00 0.00 85 1022.0
20260509112024 19 0 0.0 0.0 0.00 0.00 0.00 85 1021.9
20260509111502 19 0 0.0 0.0 0.00 0.00 0.00 83 1022.0
20260509111002 20 0 0.0 0.0 0.00 0.00 0.00 82 1022.0
20260509110502 20 0 0.0 0.0 0.00 0.00 0.00 81 1021.9
20260509110002 19 0 0.0 0.0 0.00 0.00 0.00 82 1022.0
20260509105502 18 0 0.0 0.0 0.00 0.00 0.00 82 1021.9
20260509105002 18 0 0.0 0.0 0.00 0.00 0.00 83 1022.0
20260509104502 17 0 0.0 0.0 0.00 0.00 0.00 81 1022.3
20260509104003 17 0 0.0 0.0 0.00 0.00 0.00 82 1021.9
20260509103502 17 0 0.0 0.0 0.00 0.00 0.00 82 1022.0
20260509103003 17 0 0.0 0.0 0.00 0.00 0.00 83 1021.7
20260509102523 17 0 0.0 0.0 0.00 0.00 0.00 83 1022.0
20260509102002 17 0 0.0 0.0 0.00 0.00 0.00 84 1021.9
20260509101503 17 0 0.0 0.0 0.00 0.00 0.00 84 1021.9
20260509101002 17 0 0.0 0.0 0.00 0.00 0.00 84 1021.9
20260509100524 17 0 0.0 0.0 0.00 0.00 0.00 84 1021.8
20260509100003 18 0 0.0 0.0 0.00 0.00 0.00 84 1021.9
20260509095502 18 0 0.0 0.0 0.00 0.00 0.00 84 1022.1
20260509095002 18 0 0.0 0.0 0.00 0.00 0.00 83 1021.7
20260509094503 18 0 0.0 0.0 0.00 0.00 0.00 83 1021.6
20260509094023 18 0 0.0 0.0 0.00 0.00 0.00 81 1021.7
20260509093502 18 0 0.0 0.0 0.00 0.00 0.00 81 1021.5
20260509093003 18 0 0.0 0.0 0.00 0.00 0.00 81 1021.4
20260509092503 18 0 0.0 0.0 0.00 0.00 0.00 80 1021.3
20260509092002 18 0 0.0 0.0 0.00 0.00 0.00 80 1021.3
20260509091523 18 0 0.0 0.0 0.00 0.00 0.00 80 1021.3
20260509091003 18 0 0.0 0.0 0.00 0.00 0.00 79 1021.3
20260509090503 18 0 0.0 0.0 0.00 0.00 0.00 79 1021.2
20260509090003 18 0 0.0 0.0 0.00 0.00 0.00 78 1020.8
20260509085503 19 0 0.0 0.0 0.00 0.00 0.00 78 1021.0
20260509085024 19 0 0.0 0.0 0.00 0.00 0.00 77 1021.0
20260509084503 19 0 0.0 0.0 0.00 0.00 0.00 77 1020.9
20260509084003 19 0 0.0 0.0 0.00 0.00 0.00 77 1020.8
20260509083503 18 0 0.0 0.0 0.00 0.00 0.00 77 1020.6
20260509083004 19 0 0.0 0.0 0.00 0.00 0.00 76 1020.6
20260509082503 19 0 0.0 0.0 0.00 0.00 0.00 76 1020.5
20260509082024 19 0 0.0 0.0 0.00 0.00 0.00 76 1020.6
20260509081503 19 0 0.0 0.0 0.00 0.00 0.00 74 1020.4
20260509081024 19 0 0.0 0.0 0.00 0.00 0.00 74 1020.3
20260509080524 19 0 0.0 0.0 0.00 0.10 0.00 74 1020.3
20260509080003 20 0 0.0 0.0 0.00 0.18 0.00 73 1020.2
20260509075503 19 0 0.0 0.0 0.00 0.18 0.00 73 1020.2
20260509075003 20 0 0.0 0.0 0.00 0.18 0.00 72 1020.0
20260509074503 20 0 0.0 0.0 0.00 0.18 0.00 71 1020.1
20260509074003 20 0 0.0 0.0 0.00 0.18 0.00 71 1020.1
20260509073503 20 0 0.0 0.0 0.00 0.18 0.00 70 1020.0
20260509073025 20 0 0.0 0.0 0.00 0.18 0.00 69 1020.1
20260509072503 21 0 0.0 0.0 0.00 0.18 0.00 67 1020.0
20260509072003 21 0 0.0 0.0 0.00 0.18 0.00 65 1019.9
20260509071503 21 0 0.0 0.0 0.00 0.18 0.00 64 1020.0
20260509071003 21 0 0.0 0.0 0.00 0.18 0.00 63 1019.8
20260509070503 21 0 0.0 0.0 0.00 0.18 0.00 62 1019.7
20260509070003 22 0 0.0 0.0 0.00 0.18 0.00 61 1019.7
20260509065503 22 0 0.0 0.0 0.00 0.18 0.00 60 1019.6
20260509065003 22 0 0.0 0.0 0.00 0.18 0.00 59 1019.6
20260509064503 22 0 0.0 0.0 0.00 0.18 0.00 56 1019.6
20260509064003 23 0 0.0 0.0 0.00 0.18 0.00 56 1019.4
20260509063504 22 0 0.0 0.0 0.00 0.18 0.00 56 1019.4
20260509063004 23 0 0.0 0.0 0.00 0.18 0.00 56 1019.2
20260509062503 23 0 0.0 0.0 0.00 0.18 0.00 55 1019.2
20260509062024 23 0 0.0 0.0 0.00 0.18 0.00 54 1019.4
20260509061503 23 112 0.0 3.2 0.00 0.18 0.00 53 1019.3
20260509061024 23 112 0.0 3.2 0.00 0.18 0.00 52 1019.1
20260509060503 23 0 0.0 0.0 0.00 0.18 0.00 52 1019.2
20260509060024 23 0 0.0 0.0 0.00 0.18 0.00 49 1019.1
20260509055503 24 0 0.0 0.0 0.00 0.18 0.00 46 1018.9
20260509055024 24 0 0.0 0.0 0.00 0.18 0.00 44 1018.8
20260509054503 24 0 0.0 0.0 0.00 0.18 0.00 42 1019.0
20260509054003 24 0 0.0 0.0 0.00 0.18 0.00 44 1018.9
20260509053504 24 0 0.0 0.0 0.00 0.18 0.00 43 1019.0
20260509053004 24 0 0.0 0.0 0.00 0.18 0.00 42 1018.8
20260509052503 23 0 0.0 0.0 0.00 0.18 0.00 38 1018.7
20260509052003 24 0 0.0 0.0 0.00 0.18 0.00 39 1018.6
20260509051503 24 0 0.0 0.0 0.00 0.18 0.00 42 1018.6
20260509051024 25 0 0.0 0.0 0.00 0.18 0.00 41 1018.5
20260509050503 25 0 0.0 0.0 0.00 0.18 0.00 40 1018.5
20260509050003 24 0 0.0 0.0 0.00 0.18 0.00 38 1018.7